ATLAS CENTAUR R/B - Orbit

View from above orbital plane
View from above orbital plane
View from above satellite
View from above satellite

Ground track
Ground track

The orbit data is extracted from the following two-line orbital elements,

1 28385U 04034B   13163.81015567 0.00055000  00000-0  13478-2 0    02
2 28385  57.3405 167.3425 4310124 140.5050 260.6150  6.94759510    06
Epoch (UTC): 12 June 2013 19:26:37
Eccentricity: 0.4310124
inclination: 57.3405°
perigee height: 223 km
apogee height: 10223 km
right ascension of ascending node: 167.3425°
argument of perigee: 140.5050°
revolutions per day: 6.94759510
mean anomaly at epoch: 260.6150°
orbit number at epoch: 0

The dashed part of the orbit path shows where the satellite is in the earth's shadow,  

Developed and maintained by Chris Peat, Heavens-Above GmbH. Please read the updated FAQ before sending e-mail. Imprint. DLR